RH
100 100 63 98 92 75 62 74 95 53 40 34 28 26 31 39 32 41 42 40 31 22 19 20 18 15 14 13 13 8 9 7 9 7 8 9 8 9 9 11 22 25 28 29
100 100 93 100 100 82 62 82 90 62 40 35 29 26 30 36 31 38 44 45 39 31 21 19 20 17 16 15 12 12 10 7 6 6 6 7 6 8 8 12 21 32 32 34
90 100 100 100 97 85 72 83 86 72 42 37 32 27 31 34 32 36 41 42 45 37 31 22 20 20 17 15 13 11 10 9 9 7 6 5 6 7 8 10 22 33 32 39
82 100 100 100 100 78 70 73 87 79 47 41 35 29 29 34 34 32 37 39 41 43 35 29 22 21 19 16 15 13 10 9 9 10 8 6 5 6 7 10 19 30 32 36
57 99 100 100 100 70 75 80 91 75 58 46 38 31 29 32 37 29 32 37 39 45 42 34 27 22 19 18 15 13 10 9 8 8 9 8 7 6 9 9 15 31 38 34
49 94 100 87 89 99 76 96 86 78 69 56 46 34 29 30 35 28 30 33 34 37 46 41 32 26 22 19 16 15 12 10 8 8 9 10 10 8 8 11 13 24 37 34
54 82 100 100 86 95 96 95 96 70 66 66 51 38 29 29 36 27 27 29 27 33 35 44 38 31 25 21 18 16 14 12 11 9 8 9 9 10 9 10 14 21 28 30
56 74 99 100 81 90 100 99 100 98 64 65 63 46 34 27 32 30 26 26 26 26 30 34 41 37 31 24 21 18 16 14 14 12 11 12 11 11 11 11 14 20 25 28
56 75 96 100 100 95 100 100 98 93 73 62 70 55 39 28 29 34 28 25 27 26 25 26 27 36 36 32 26 21 19 16 15 15 13 13 15 14 13 13 14 16 27 31
57 72 91 98 91 95 100 100 89 88 82 67 71 65 50 34 27 31 30 25 25 28 26 24 23 24 30 36 31 27 24 22 19 16 16 17 16 16 15 17 18 17 24 34
59 70 77 88 79 96 100 100 92 93 75 63 75 74 58 44 31 28 32 27 25 26 26 25 25 23 22 25 29 33 29 26 24 22 20 18 17 18 19 21 23 26 26 29
50 54 58 72 81 86 100 100 99 92 86 58 59 85 64 60 38 28 32 31 27 30 32 34 37 40 33 33 22 23 24 29 30 26 24 22 22 21 21 22 24 26 27 28
54 56 56 66 69 95 100 100 100 93 87 79 54 67 86 66 61 38 30 34 31 31 34 39 41 44 45 41 38 31 27 26 24 25 30 28 26 25 26 26 27 28 30 31
76 54 50 59 69 97 100 100 100 92 96 95 70 52 77 93 68 64 41 36 37 34 37 41 44 46 45 45 41 39 43 38 33 33 32 26 24 26 29 29 30 30 31 32
99 66 56 54 69 75 87 98 100 99 84 97 90 58 53 74 94 74 74 45 38 37 38 37 39 41 45 49 49 51 44 42 41 39 35 31 32 37 37 32 28 25 26 28
100 95 65 62 76 72 90 73 100 92 87 79 92 73 64 62 79 100 85 83 50 41 38 40 41 40 43 45 46 49 52 52 48 44 39 36 35 36 38 41 50 54 57 56
91 100 74 77 75 62 69 74 96 100 100 90 100 95 73 69 65 87 100 92 86 70 53 49 51 49 47 48 45 52 55 53 54 59 58 53 48 42 40 49 51 54 56 56
94 100 81 79 76 61 73 68 82 100 100 74 85 100 97 87 83 66 84 98 90 90 97 74 59 62 65 63 71 68 66 67 71 70 67 73 79 84 87 82 82 79 73 71
98 97 97 80 76 69 95 95 100 80 100 96 74 98 100 89 85 78 64 67 89 96 89 87 96 85 73 77 77 82 83 78 78 80 81 83 89 95 96 87 75 73 75 74
82 91 95 83 87 81 97 91 96 91 83 88 94 88 100 98 77 71 75 68 68 76 84 88 92 96 100 99 96 100 100 100 100 100 100 100 99 90 83 81 82 80 82 84
42 76 94 100 100 100 97 82 89 94 84 99 100 100 100 100 97 82 71 74 74 75 73 73 77 86 98 94 98 99 96 96 96 89 83 84 87 94 99 100 99 98 98 98
37 45 72 92 100 100 82 79 92 83 84 100 100 100 100 100 100 100 82 71 73 80 83 79 84 77 88 87 87 85 81 73 72 68 69 76 84 86 81 83 85 86 80 75
38 34 37 66 96 99 82 80 93 91 100 92 100 100 100 100 100 100 100 79 77 81 82 97 94 88 100 100 100 99 99 93 98 96 95 97 95 99 100 100 100 100 100 100
38 40 39 48 68 85 84 86 87 84 81 85 100 100 100 100 100 100 100 98 97 88 95 100 74 78 91 100 100 100 100 100 100 100 100 100 100 100 100 100 100 99 99 98
35 44 44 37 49 73 83 85 90 88 80 80 96 100 100 100 100 100 100 100 88 99 100 93 97 90 92 92 92 89 96 100 100 100 100 100 98 92 85 81 68 65 68 74
30 40 50 48 49 48 68 72 80 86 89 89 77 84 99 100 100 95 100 100 100 100 98 93 96 100 99 100 100 100 100 100 100 95 96 99 100 100 100 98 98 98 97 94
27 26 35 51 47 46 53 55 62 73 80 86 78 68 85 84 90 100 100 100 100 100 95 87 90 88 87 88 91 90 93 97 98 96 94 90 90 91 93 98 100 100 100 100
Wind_Speed
54 50 48 42 37 34 31 25 24 23 21 25 29 31 36 42 46 52 59 64 61 48 38 32 28 21 11 2 6 14 20 25 29 34 40 48 57 68 78 90 98 96 92 91
55 51 46 43 38 37 31 25 21 22 19 21 25 28 32 37 40 46 53 60 62 54 43 33 26 24 15 8 1 5 15 19 26 33 39 47 53 64 75 85 96 98 94 90
57 52 48 44 40 37 32 25 19 19 17 18 21 24 27 33 36 41 47 53 59 59 49 38 29 24 20 14 7 1 9 15 18 26 35 41 47 59 70 82 96 101 95 93
60 55 51 46 41 36 32 27 21 16 16 15 18 21 23 28 32 36 42 46 53 57 54 44 34 26 22 17 11 6 4 9 14 18 28 36 42 49 62 77 93 98 97 95
64 59 53 47 44 35 35 27 26 18 17 14 15 17 19 23 28 31 37 41 47 53 55 50 40 30 23 20 16 10 5 8 9 16 21 28 35 43 54 67 86 96 101 95
67 61 56 50 48 41 36 29 28 23 16 14 14 14 15 18 22 26 31 36 41 46 53 54 47 38 29 22 18 12 6 8 13 13 18 21 28 38 47 60 77 90 98 97
70 62 58 55 49 42 37 31 30 27 22 15 15 12 12 14 18 21 26 30 36 40 46 51 52 45 35 27 22 16 8 8 13 17 19 23 26 33 42 53 66 85 92 93
70 66 63 57 50 43 39 34 31 26 26 19 17 13 10 10 13 16 20 24 30 36 41 46 50 50 43 34 27 20 12 9 11 15 18 18 21 28 36 47 60 78 84 87
73 71 66 60 55 48 43 40 37 27 23 23 19 16 10 9 8 11 14 18 22 29 34 39 45 49 49 42 34 27 21 14 12 14 18 21 21 24 30 40 50 63 74 80
74 74 68 64 57 51 45 43 37 33 28 26 22 21 14 11 7 7 9 12 15 20 25 31 36 42 46 48 43 36 28 22 16 13 14 16 18 21 24 31 44 53 63 69
74 72 70 64 61 53 48 44 40 37 30 27 25 21 21 14 10 7 6 6 9 14 19 24 29 33 38 42 47 46 38 31 24 18 14 14 16 21 26 31 38 48 55 60
77 73 70 67 61 55 51 48 42 41 35 31 26 26 24 19 15 12 8 5 3 6 11 16 20 25 29 33 35 38 43 44 36 28 22 16 13 16 20 25 30 37 44 51
81 77 73 71 65 60 55 51 47 44 40 36 30 30 25 25 20 17 15 11 7 4 4 9 13 17 20 22 26 30 33 36 38 39 36 27 21 17 15 17 23 28 33 37
87 82 77 74 69 65 60 55 52 48 43 40 37 33 31 27 27 22 20 18 14 12 8 6 8 10 13 15 16 18 22 24 26 29 31 30 31 30 23 17 15 17 21 25
92 87 84 80 73 67 63 59 56 54 47 43 42 39 35 32 29 30 27 24 21 19 16 13 12 11 10 10 12 13 13 13 15 16 18 18 18 19 19 17 16 14 10 7
97 92 87 83 78 72 67 61 60 59 53 45 44 44 41 36 34 32 32 31 28 25 23 22 20 18 16 14 15 14 13 13 13 12 12 11 11 10 8 7 6 5 6 6
99 97 91 85 83 79 73 66 65 63 59 54 46 46 45 42 42 39 36 34 35 32 30 28 26 25 22 22 21 20 19 18 17 17 17 17 17 16 16 17 18 20 22 24
100 99 94 92 87 83 79 75 70 67 66 60 50 47 47 47 46 44 43 39 36 38 37 35 32 32 30 26 30 27 26 24 24 25 25 25 25 25 25 26 28 31 32 34
96 102 97 98 91 89 84 81 78 74 70 66 56 53 55 53 50 48 47 45 43 41 38 37 38 39 38 33 34 35 34 34 33 33 33 33 34 36 38 39 39 39 41 42
93 99 102 102 97 91 92 91 87 81 77 70 66 62 58 59 55 53 51 49 48 48 47 43 41 40 41 45 41 40 41 40 40 41 41 42 43 44 45 45 44 44 45 47
92 95 101 103 101 100 98 97 91 86 78 73 73 75 69 64 62 60 56 52 53 51 51 49 50 48 45 46 44 44 42 42 43 43 43 42 43 43 45 47 49 51 53 54
93 91 94 100 105 107 103 100 92 87 82 78 78 77 75 70 67 67 63 58 54 54 55 53 55 52 51 51 51 50 48 46 45 47 48 49 50 51 53 54 56 58 61 63
95 93 94 97 102 108 109 102 95 89 85 84 84 82 78 77 74 74 71 65 58 57 56 55 62 58 55 53 53 52 50 50 51 52 54 55 56 57 59 60 62 63 66 69
98 96 96 98 101 101 99 98 96 92 93 88 88 89 87 86 82 81 79 72 66 62 59 62 66 62 62 60 58 58 57 57 58 58 59 61 63 64 65 67 69 72 75 78
100 97 98 97 97 96 95 95 96 97 95 93 92 93 90 90 89 87 84 78 72 67 66 69 71 69 67 67 67 67 65 65 66 68 70 71 73 74 76 77 80 82 84 86
103 102 99 95 94 92 93 93 92 95 96 95 97 96 94 95 96 91 88 85 81 78 77 75 75 74 74 73 74 74 73 74 75 76 78 79 81 83 85 87 88 90 93 95
99 97 100 101 96 93 90 92 95 96 97 98 98 99 99 98 96 94 92 85 85 86 87 84 82 82 78 79 81 81 81 82 82 83 84 87 89 91 93 95 97 99 101 103
Wind_Direction
233 241 245 253 257 267 276 275 291 298 304 320 333 345 348 354 358 3 7 10 13 15 15 18 24 24 23 56 207 206 192 189 188 189 190 194 195 196 198 197 200 201 203 204
229 237 242 248 253 261 268 268 282 294 294 315 330 343 349 355 359 5 9 11 15 16 19 19 24 29 27 25 20 210 226 223 202 199 197 198 198 199 198 196 198 201 203 205
226 234 238 243 248 255 260 260 275 288 285 308 325 340 348 354 0 5 11 14 16 18 20 21 20 28 31 22 26 143 209 223 224 217 204 203 203 201 200 196 198 200 202 206
223 229 234 237 242 250 254 257 259 287 275 296 317 336 346 352 360 5 10 16 19 21 22 24 23 24 27 31 25 27 139 187 200 205 213 207 203 206 204 198 197 200 203 205
221 224 227 235 238 238 250 254 253 267 268 282 305 328 341 349 357 5 10 15 22 24 26 26 28 27 27 30 29 30 87 133 170 181 200 207 206 203 205 202 199 198 204 207
220 222 225 228 238 241 249 248 247 252 264 270 289 313 334 345 355 6 12 18 23 27 28 29 29 30 31 36 35 38 66 127 143 163 179 191 202 205 200 201 202 197 202 206
219 219 222 227 234 239 241 240 247 249 256 264 270 291 322 336 348 5 13 19 25 30 32 32 33 33 33 37 42 46 65 113 136 150 169 181 186 197 200 199 202 200 202 206
217 216 219 223 228 226 235 239 242 244 253 253 257 269 299 322 337 355 11 20 28 32 35 38 36 37 38 39 46 50 58 93 123 136 149 164 181 192 198 202 198 201 203 206
215 216 217 221 228 228 234 237 238 240 247 249 255 252 267 292 319 339 4 18 29 34 37 39 41 39 40 43 45 51 55 70 101 126 143 153 164 181 191 201 201 200 201 207
215 216 217 218 222 224 230 232 234 241 243 245 246 245 245 263 277 313 338 8 25 33 36 38 41 44 44 44 48 52 58 62 76 102 121 135 152 165 179 195 203 202 202 206
211 212 214 217 219 223 227 230 236 238 236 238 242 249 236 240 256 258 298 344 23 35 39 41 41 41 47 50 49 51 57 62 68 79 96 123 146 158 170 188 198 203 206 209
210 212 213 215 218 217 224 228 234 234 232 233 240 244 239 232 237 244 250 276 335 31 32 33 34 38 41 46 51 54 54 57 63 71 81 97 121 153 170 180 192 203 210 216
210 213 214 216 211 218 222 226 232 234 232 233 236 240 244 234 231 235 242 247 253 271 338 13 20 25 35 41 46 53 60 61 61 61 66 77 92 112 138 167 185 197 207 216
210 214 214 215 214 218 222 225 230 233 234 235 233 235 238 244 233 232 237 240 244 248 259 297 337 353 7 18 32 42 49 56 61 64 65 66 68 73 84 106 141 172 191 204
209 213 215 215 216 216 220 223 228 233 232 234 236 233 235 240 244 234 234 238 239 241 249 258 276 298 316 333 346 357 13 30 36 42 47 57 66 73 77 78 79 80 88 105
209 213 215 215 216 218 219 222 226 231 235 232 239 237 233 237 241 244 238 237 239 242 244 249 257 266 275 283 296 310 322 334 341 348 356 3 6 4 12 16 13 357 331 308
208 212 215 217 219 221 219 221 223 230 233 234 233 239 239 236 239 240 243 242 238 240 244 246 250 255 261 270 274 282 289 297 301 303 308 312 314 313 314 313 310 306 304 301
209 212 214 217 219 220 221 222 225 227 233 234 232 235 242 240 238 238 240 243 245 244 243 245 246 251 253 254 266 269 275 279 281 285 291 292 293 293 291 291 291 292 293 294
212 212 214 217 219 221 222 224 226 227 229 232 234 237 240 243 243 241 242 242 244 247 247 248 249 249 252 250 249 264 269 272 275 278 280 283 285 286 287 289 290 291 291 291
213 214 215 218 220 223 224 226 227 228 228 231 235 240 244 246 245 246 245 245 247 250 250 250 251 253 255 257 258 257 262 266 271 274 277 279 281 283 285 289 290 291 290 290
215 215 217 217 221 224 225 226 226 227 228 230 236 240 243 247 247 247 245 247 246 249 252 253 253 251 253 256 258 260 260 263 267 270 273 276 278 281 283 285 286 286 285 286
217 216 217 218 221 223 225 224 224 226 227 230 234 238 243 244 247 249 247 246 247 248 251 253 258 257 257 258 259 261 264 267 268 269 270 271 273 276 278 279 280 281 282 284
219 219 218 219 220 223 224 225 225 228 229 228 232 235 238 240 245 246 247 248 248 248 249 252 255 255 256 258 260 263 265 268 269 271 273 274 276 277 277 278 279 280 282 283
222 220 221 220 220 223 223 225 228 230 228 228 232 236 238 241 243 245 247 249 247 247 247 250 254 255 255 254 256 259 261 262 263 265 268 270 272 273 275 279 280 281 282 284
223 222 223 224 222 223 225 225 227 230 231 229 231 235 238 241 244 245 246 248 247 246 247 248 252 255 256 256 257 258 259 261 264 266 267 269 271 272 274 277 279 281 283 284
222 223 225 225 227 224 226 226 228 230 231 233 234 234 236 239 242 244 245 246 247 247 249 250 251 254 256 258 258 258 260 261 263 266 268 270 272 273 274 277 279 280 282 283
223 223 224 225 228 229 227 227 228 230 233 235 236 236 238 241 242 245 244 245 248 250 251 252 254 253 254 257 258 260 263 265 267 269 271 272 273 273 274 276 278 280 282 283